www.pogodaiklimat.ru

Погода и климат >> Архив погоды >> Чехия >> Снежка


ПОГОДА на Снежке

  • Прогноз погоды на Снежке
  • Монитор погоды на Снежке

АРХИВ ПОГОДЫ на Снежке

Время (UTC), дата Ветер
(напр.,м/с)
 
Видим.   Явления Облачность Т
(С)
Тd
(С)
f
(%)
Тe
(С)
Тes
(С)
Комфортность P
(гПа)
Po
(гПа)
Тmin
(С)
Tmax
(С)
R
(мм)
R24
(мм)
S
(см)
22 13.01
{36}
н/о 1000.0
23 13.01 н/о 1000.0
00 14.01
{39}
н/о 1000.0
01 14.01 н/о 1000.0
02 14.01 н/о 1000.0
03 14.01 н/о 1000.0
04 14.01 н/о 1000.0
05 14.01 н/о 1000.0
06 14.01 н/о 1000.0 -4.5
07 14.01 н/о 1000.0
08 14.01 СЗ 19-36
{36}
н/о н/о -4.3 -5.1 94 -16 -16 1000.0 1000.0
09 14.01
{36}
н/о 1000.0
10 14.01 н/о 1000.0
11 14.01 н/о 1000.0
12 14.01
{36}
н/о 1000.0
13 14.01 н/о 1000.0
14 14.01 н/о 1000.0
15 14.01 н/о 1000.0
16 14.01 н/о 1000.0
17 14.01 н/о 1000.0
12 15.01 н/о 1000.0
13 15.01 н/о 1000.0
14 15.01 н/о 1000.0
15 15.01 н/о 1000.0
16 15.01 н/о 1000.0
17 15.01 н/о 1000.0
18 15.01 н/о 1000.0
19 15.01 н/о 1000.0
20 15.01 н/о 1000.0
21 15.01 н/о 1000.0
22 15.01 н/о 1000.0
23 15.01 н/о 1000.0
00 16.01 н/о 1000.0
01 16.01 н/о 1000.0
02 16.01 н/о 1000.0
03 16.01 н/о 1000.0
04 16.01 н/о 1000.0
05 16.01 н/о 1000.0
06 16.01 н/о 1000.0
07 16.01 н/о 1000.0
08 16.01 н/о 1000.0
09 16.01 н/о 1000.0
10 16.01 н/о 1000.0
11 16.01 н/о 1000.0
12 16.01 н/о 1000.0
13 16.01 н/о 1000.0
14 16.01 н/о 1000.0
15 16.01 н/о 1000.0
16 16.01 З 16-24
{24}
н/о н/о -3.8 -4.4 96 -15 -15 1000.0 1000.0
17 16.01 З 19-26
{25}
н/о н/о -3.7 -4.4 95 -16 -16 1000.0 1000.0
18 16.01 З 16-27
{28}
н/о н/о -3.8 -4.4 96 -15 -15 1000.0 1000.0 -3.7
19 16.01 З 16-25
{26}
н/о н/о -3.8 -4.4 96 -15 -15 1000.0 1000.0
20 16.01 З 18-26
{25}
н/о н/о -3.9 -4.5 96 -16 -16 1000.0 1000.0
21 16.01 З 22-32
{28}
н/о н/о -4.0 -4.6 96 -17 -17 1000.0 1000.0
22 16.01 З 23-32
{32}
н/о н/о -4.1 -4.8 95 -17 -17 1000.0 1000.0
23 16.01 ЮЗ 11-26
{32}
н/о н/о -4.2 -4.8 96 -14 -14 1000.0 1000.0
00 17.01 ЮЗ 18-30
{32}
н/о н/о -4.2 -4.9 95 -16 -16 1000.0 1000.0
01 17.01 ЮЗ 26-38
{35}
н/о н/о -4.4 -5.1 95 -18 -18 1000.0 1000.0
02 17.01 ЮЗ 29-41
{43}
н/о н/о -4.5 -5.3 94 -18 -18 1000.0 1000.0
03 17.01 З 30-41
{45}
н/о н/о -4.8 -5.6 94 -19 -19 1000.0 1000.0
04 17.01 З 32-49
{49}
н/о н/о -5.0 -5.9 93 -20 -20 1000.0 1000.0
05 17.01 З 32-46
{47}
н/о н/о -5.2 -6.0 94 -20 -20 1000.0 1000.0
06 17.01 З 28-41
{49}
н/о н/о -5.2 -6.0 94 -19 -19 1000.0 1000.0 -5.2
07 17.01 З 26-40
{45}
н/о н/о -5.2 -6.0 94 -19 -19 1000.0 1000.0
08 17.01 З 24-32
{36}
н/о н/о -5.2 -6.0 94 -19 -19 1000.0 1000.0
09 17.01 З 25-35
{45}
н/о н/о -5.2 -6.0 94
10 17.01 З 25-39
{38}
н/о н/о -5.2 -6.0 94
11 17.01 З 20-33
{39}
н/о н/о -5.1 -5.8 95
12 17.01 ЮЗ 16-29
{45}
н/о н/о -5.0 -5.7 95
13 17.01 ЮЗ 15-28
{28}
н/о н/о -4.8 -5.6 94
14 17.01 ЮЗ 16-26
{26}
н/о н/о -4.8 -5.6 94
15 17.01 ЮЗ 12-22
{28}
н/о н/о -4.6 -5.3 95
16 17.01 ЮЗ 10-23
{25}
н/о н/о -4.4 -5.1 95
17 17.01 ЮЗ 9-22
{23}
н/о н/о -4.2 -4.9 95
18 17.01 ЮЗ 10-23
{30}
н/о н/о -4.1 -4.8 95 -4.1
19 17.01 З 23-36
{35}
н/о н/о -4.1 -5.0 93
20 17.01 З 25-40
{37}
н/о н/о -4.6 -5.5 93
21 17.01 З 21-38
{40}
н/о н/о -5.0 -5.9 93
22 17.01 ЮЗ 12-25
{34}
н/о н/о -5.2 -6.1 93
23 17.01 З 7-17
{32}
н/о н/о -5.0 -5.8 94
00 18.01 З 14-25
{40}
н/о н/о -4.9 -5.8 93
01 18.01 З 16-24
{25}
н/о н/о -4.8 -5.7 93
02 18.01 З 15-23
{24}
н/о н/о -4.9 -5.7 94
03 18.01 З 16-25
{25}
н/о н/о -4.8 -5.7 93
04 18.01 З 17-26
{25}
н/о н/о -4.7 -5.7 93
05 18.01 З 17-25
{26}
н/о н/о -4.6 -5.7 92
06 18.01 З 15-25
{28}
н/о н/о -4.6 -5.7 92 -5.2
07 18.01 З 14-24
{25}
н/о н/о -4.7 -5.7 93
08 18.01 З 13-25
{26}
н/о н/о -4.7 -5.7 93
09 18.01 СЗ 8-20
{26}
н/о н/о -4.7 -5.7 93
10 18.01 З 11-24
{23}
н/о н/о -4.7 -5.7 93
11 18.01 З 9-21
{24}
н/о н/о -4.8 -5.7 93
12 18.01
{26}
н/о н/о -4.9 -5.7 94
13 18.01 СЗ 8-16
{15}
н/о н/о -4.9 -5.9 93
14 18.01 СЗ 7-17
{18}
н/о н/о -5.0 -5.9 93
15 18.01 СЗ 6-14
{18}
н/о н/о -5.1 -5.9 94
16 18.01 СЗ 8-16
{16}
н/о н/о -5.0 -6.0 93
17 18.01 СЗ 7-15
{16}
н/о н/о -5.1 -6.0 93
18 18.01 З 4-13
{18}
н/о н/о -5.3 -6.0 95 -4.6
19 18.01 З 5-13
{13}
н/о н/о -5.6 -6.1 96
20 18.01 З 4-13
{13}
н/о н/о -6.0 -6.6 96
21 18.01 З 5-13
{13}
н/о н/о -6.6 -7.0 97
22 18.01 З 4-10
{13}
н/о н/о -7.1 -7.6 96
23 18.01 СЗ 6-12
{12}
н/о н/о -7.0 -7.2 98
00 19.01 З 4-11
{13}
н/о н/о -7.3 -7.5 98
01 19.01 З 4-11
{12}
н/о н/о -7.7 -8.1 97
02 19.01 СЗ 5-11
{12}
н/о н/о -7.6 -7.8 98
03 19.01 З 4-10
{12}
н/о н/о -7.4 -7.8 97
04 19.01 СЗ 6
{11}
н/о н/о -7.4 -7.7 98
05 19.01 С 6
{11}
н/о н/о -7.1 -7.6 96
06 19.01 СЗ 4
{12}
н/о н/о -7.0 -7.6 95 -7.7
07 19.01 С 3 н/о н/о -7.0 -7.6 95
08 19.01 В 3 н/о н/о -7.2 -7.6 97
09 19.01 ЮВ 3 н/о н/о -7.2 -7.7 96
10 19.01 Ю 3 н/о н/о -7.5 -8.1 95
11 19.01 Ю 4 н/о н/о -7.7 -8.5 94
12 19.01 Ю 4 н/о н/о -8.1 -9.0 93
13 19.01 Ю 4 н/о н/о -8.3 -9.2 93
14 19.01 Ю 4 н/о н/о -8.4 -9.3 93
15 19.01 Ю 6 н/о н/о -8.7 -9.8 92
16 19.01 Ю 6 н/о н/о -8.9 -10.1 91
17 19.01 Ю 6 н/о н/о -9.3 -10.4 92
18 19.01 Ю 7 н/о н/о -9.9 -11.1 91 -7.0
19 19.01 Ю 8 н/о н/о -10.5 -11.7 91
20 19.01 Ю 8 н/о н/о -10.9 -12.2 90
21 19.01 Ю 9
{11}
н/о н/о -11.6 -12.9 90
22 19.01 Ю 8
{12}
н/о н/о -12.2 -13.6 89
23 19.01 Ю 7 н/о н/о -12.3 -13.9 88
00 20.01 Ю 7
{12}
н/о н/о -12.1 -13.8 87
01 20.01 Ю 6 н/о н/о -11.9 -13.6 87
02 20.01 Ю 5 н/о н/о -11.7 -13.4 87
03 20.01 Ю 7 н/о н/о -11.7 -13.3 88
04 20.01 Ю 7 н/о н/о -11.7 -13.3 88
05 20.01 ЮВ 7 н/о н/о -11.7 -13.3 88
06 20.01 ЮВ 5 н/о н/о -11.7 -13.1 89 -12.3
07 20.01 ЮВ 5 н/о н/о -11.5 -12.9 89
08 20.01 ЮВ 3 н/о н/о -11.5 -12.8 90
09 20.01 Ю 5 н/о н/о -11.5 -12.9 89
10 20.01 Ю 5 н/о н/о -11.5 -13.0 89
11 20.01 ЮЗ 5 н/о н/о -11.4 -12.9 89
12 20.01 ЮЗ 3 н/о н/о -11.1 -12.6 89
13 20.01 ЮЗ 1 н/о н/о -10.8 -12.3 89
14 20.01 штиль 0 н/о н/о -10.6 -12.1 89
15 20.01 С 3 н/о н/о -10.5 -12.0 89
16 20.01 С 4 н/о н/о -10.4 -12.0 88
17 20.01 СВ 7 н/о н/о -10.3 -12.2 86
18 20.01 СВ 9 н/о н/о -10.2 -12.1 86 -10.2
19 20.01 СВ 9 н/о н/о -9.9 -11.7 87
20 20.01 СВ 8 н/о н/о -9.5 -11.3 87
21 20.01 СВ 9 н/о н/о -9.2 -11.0 87
22 20.01 СВ 8
{11}
н/о н/о -8.8 -10.5 87

 

Местоположение метеостанции Снежка (Чехия): широта 50.74 долгота 15.74 высота над уровнем моря 1602 м.

В архиве по умолчанию представлена погода на Снежке за последнюю неделю. Архивные данные за месяц целиком и за предыдущие месяцы, начиная с января 2011 года, Вы можете получить, выбрав интересующий диапазон дат из раскрывающегося списка и нажав кнопку "Ввод!".


*Определитесь, кто Вы:
робот инопланетянин человек

Внимание! Время в таблицах - всемирное. Для получения местного времени необходимо прибавить поправку, которая равна 1 ч.

Смотрите также архив погоды в соседних городах и на ближайших метеорологических станциях:

Погода на Снежке (Польша) (1 км)
Погода в Пец-под-Снежкой (Чехия) (8 км)
Погода в Еленя-Гуре (Польша) (18 км)
Погода в Либереце (Чехия) (51 км)
Погода в Поломе (Чехия) (60 км)
Погода в Легнице (Польша) (60 км)
Погода в Клодзко (Польша) (71 км)
Погода в Гёрлице (Германия) (73 км)
Погода в Пардубице (Чехия) (80 км)
Погода во Вроцлаве (Польша) (89 км)

Пояснения к столбцам:

Ветер - указаны скорость ветра в м/с - средняя за 10 мин, порывы в срок и между сроками (в фигурных скобках) и направление, откуда дует ветер: С - северный, СВ - северо-восточный, В - восточный, ЮВ - юго-восточный, Ю - южный, ЮЗ - юго-западный, З - западный, СЗ - северо-западный.
Видимость - горизонтальная дальность видимости в метрах или километрах. При видимости от 1 до 10 км при отсутствии осадков обычно наблюдается дымка, при ухудшении видимости до 1 км и менее - туман. В сухую погоду видимость может ухудшаться дымом, пылью или мглою.
Явления - указаны атмосферные явления, наблюдавшиеся в срок или в последний час перед сроком; фигурными скобками обозначены явления, наблюдавшиеся между сроками (за 1-3 часа до срока); квадратными скобками обозначены град или гололедные отложения с указанием их диаметра в мм.
Облачность - указаны через наклонную черту общая и нижняя облачность в баллах и высота нижней границы облаков в метрах; квадратными скобками обозначены формы облаков: Ci - перистые, Cs - перисто-слоистые, Cc - перисто-кучевые, Ac - высококучевые, As - высокослоистые, Sc - слоисто-кучевые, Ns - слоисто-дождевые, Cu - кучевые, Cb - кучево-дождевые. Подробнее классификацию облаков см. в Атласе облаков (PDF).
T - Температура воздуха - температура, измеренная на высоте 2 м над землей.
Td - Температура точки росы - температура, при понижении до которой содержащийся в воздухе водяной пар достигнет насыщения.
f - Относительная влажность воздуха - влажноcть воздуха, измеренная на высоте 2 м над землей.
Te - Эффективная температура - температура, которую ощущает одетый по сезону человек в тени. Характеристика душности погоды. При расчете учитывается влияние влажности воздуха и скорости ветра на теплоощущения человека.
Tes - Эффективная температура на солнце - температура, которую ощущает человек, с поправкой на солнечный нагрев. Характеристика знойности погоды. Зависит от высоты солнца над горизонтом, облачности и скорости ветра. Ночью, в пасмурную погоду, а также при ветре 12 м/с и более поправка равна нулю.
P - Атмосферное давление - приведенное к уровню моря атмосферное давление.
Po - Атмосферное давление - измеренное на уровне метеостанции атмосферное давление.
Tmin - Минимальная температура - минимум температуры воздуха на высоте 2 м над землей.
Tmax - Максимальная температура - максимум температуры воздуха на высоте 2 м над землей.
R - Количество осадков - Количество выпавших осадков за период времени, мм. При наведении курсора мыши на число - период времени, за который выпало указанное количество осадков.
R24 - Количество осадков - Количество выпавших осадков за 24 часа, мм.
S - Снежный покров - Высота снежного покрова, см. При наведении курсора мыши на число - состояние снежного покрова и степень покрытия местности в баллах.